Location: Blackrock Ranger Station
(36.0936°N, 118.2611°W)
Time: 08:28:17
(UTC-07:00)

AO-7 - Pass Details

Date: 24 February 2026
Orbit: 1440 x 1458 km, 102.0° (Epoch: 15 March)

Event Time Altitude Azimuth Distance (km) Brightness Sun altitude
Rises 05:25:53 0° 26° (NNE) 4,561 ? -13.6°
Reaches altitude 10° 05:29:01 10° 35° (NE) 3,580 ? -13.0°
Maximum altitude 05:36:31 36° 99° (E) 2,157 ? -11.5°
Drops below altitude 10° 05:43:57 10° 163° (SSE) 3,569 ? -10.0°
Sets 05:47:03 0° 172° (S) 4,544 ? -9.3°
